Flag for Canada Weather past 2 weeks in Edmonton, Alberta, Canada

Now
36 °F

Clear.


Feels Like: 32 °F
Forecast: 26 / 40 °F
Wind: 5 mph from Southwest

Location: Edmonton Municipal

Current Time: Mar 5, 2015 at 11:14:00 PM

Latest Report: Mar 5, 2015 at 10:00 PM


Visibility: 9 mi

Pressure: 29.99 "Hg

Humidity: 60%

Dew point: 23 °F

Location of EdmontonLocation

Historic Weather in Edmonton — Graph

°F

Edmonton temperature yesterday

Maximum temperature yesterday: 25 °F (at 6:00 PM)
Minimum temperature yesterday: 0 °F (at 4:00 AM)
Average temperature yesterday: 11 °F

Past Weeks' High & Low Weather Summary

 TemperatureHumidityPressure
High46 °F (Feb 23, 3:00 PM)93% (Feb 24, 7:00 PM)30.76 "Hg (Feb 24, 7:00 PM)
Low-2 °F (Feb 26, 2:00 AM)40% (Mar 3, 2:00 PM)29.81 "Hg (Feb 19, 2:59 AM)
Average20 °F68%30.25 "Hg
* Reported Feb 18 9:00 PM — Mar 5 9:00 PM, Edmonton, Weather by CustomWeather, © 2015

Note: Actual official high and low records may vary slightly from our data, if they occured in-between our weather recording intervals... More about our weather records

Advertising

Edmonton weather history for previous 24 hours

 ConditionsComfort  
Time TempWeatherWind HumidityBarometerVisibility
9:00 PM
Thu, Mar 5
36 °FClear.6 mph60%30.00 "Hg9 mi
8:00 PM36 °FClear.7 mph60%30.01 "Hg9 mi
7:00 PM37 °FPassing clouds.7 mph56%30.02 "Hg9 mi
6:00 PM39 °FSunny.8 mph56%30.03 "Hg9 mi
5:00 PM41 °FSunny.6 mph53%30.04 "Hg9 mi
4:00 PM41 °FSunny.7 mph53%30.04 "Hg9 mi
3:00 PM41 °FSunny.7 mph53%30.04 "Hg9 mi
2:00 PM41 °FSunny.14 mph49%30.05 "Hg9 mi
1:00 PM41 °FScattered clouds.12 mph49%30.06 "Hg9 mi
12:00 PM39 °FPassing clouds.8 mph52%30.07 "Hg9 mi
11:00 AM37 °FSunny.10 mph52%30.07 "Hg9 mi
10:00 AM34 °FSunny.8 mph56%30.08 "Hg9 mi
9:00 AM32 °FSunny.7 mph55%30.06 "Hg9 mi
8:00 AM30 °FScattered clouds.9 mph55%30.05 "Hg9 mi
7:00 AM28 °FOvercast.7 mph55%30.03 "Hg9 mi
6:00 AM25 °FPassing clouds.7 mph59%30.03 "Hg9 mi
5:00 AM19 °FPassing clouds.7 mph63%30.03 "Hg9 mi
4:00 AM21 °FPassing clouds.3 mph58%30.02 "Hg9 mi
3:00 AM23 °FClear.7 mph54%30.02 "Hg9 mi
2:00 AM23 °FClear.8 mph54%30.03 "Hg9 mi
1:00 AM23 °FClear.7 mph54%30.03 "Hg9 mi
12:00 AM19 °FClear.7 mph58%30.04 "Hg9 mi
11:00 PM
Wed, Mar 4
21 °FClear.6 mph58%30.05 "Hg9 mi
Weather by CustomWeather, © 2015

See weather overviewHow to use our weather pages